Regional Weather Roundup
Issued by NWS Sioux Falls, SD

Home | Current Version | Previous Version | Graphics & Text | Print | Product List | Glossary Off
Versions: 1 2 3 4 5 6 7 8 9 10 11 12 13 14 15 16 17 18 19 20 21 22 23 24 25 26 27 28 29 30 31 32 33 34 35 36 37 38 39 40 41 42 43 44 45 46 47 48 49 50

000
ASUS43 KFSD 162202
RWRFSD

WEATHER ROUNDUP FOR SE SOUTH DAKOTA/SW MINNESOTA/NW IOWA
NATIONAL WEATHER SERVICE SIOUX FALLS SD
500 PM CDT TUE SEP 16 2014

NOTE: "FAIR" INDICATES FEW OR NO CLOUDS BELOW 12,000 FEET WITH NO
SIGNIFICANT WEATHER AND OR OBSTRUCTIONS TO VISIBILITY.


SDZ038>040-050-052>070-162300-
SOUTHEAST SOUTH DAKOTA

CITY           SKY/WX    TMP DP  RH WIND       PRES   REMARKS
CHAMBERLAIN    SUNNY     76  57  51 S6        29.92F
HURON          SUNNY     74  53  48 S14       29.93F
MADISON        FAIR      66  50  55 S16G22    30.00F
MITCHELL       PTSUNNY   73  55  53 S13G20    29.95F
SIOUX FALLS    PTSUNNY   66  49  54 S15G23    30.00F
WINNER         FAIR      80  55  42 CALM      29.93F
YANKTON        SUNNY     70  52  52 S17       29.99F
$$

MNZ071-072-080-081-089-090-097-098-162300-
SOUTHWEST MINNESOTA

CITY           SKY/WX    TMP DP  RH WIND       PRES   REMARKS
FAIRMONT       SUNNY     68  41  37 S8        30.06F
JACKSON        SUNNY     68  43  40 SW9       30.06F
LUVERNE        CLOUDY    66  45  45 S12       30.03F
MARSHALL       CLOUDY    66  45  45 S12       30.00F
MONTEVIDEO     CLOUDY    70  46  43 S5        30.01F
PIPESTONE      CLOUDY    64  46  52 S15       30.01F
REDWOOD FALLS  PTSUNNY   69  44  40 S7        30.02F
TRACY          CLOUDY    67  48  49 S7        30.02F
WINDOM         SUNNY     68  45  42 S8        30.04F
WORTHINGTON    CLOUDY    66  45  45 S12G17    30.04F
$$

IAZ001>003-012>014-020>022-031-032-NEZ013-014-SDZ071-162300-
NORTHWEST IOWA

CITY           SKY/WX    TMP DP  RH WIND       PRES   REMARKS
CHEROKEE       SUNNY     67  47  48 S9        30.06F
DENISON        SUNNY     66  48  52 S7G15     30.05F
ESTHERVILLE    SUNNY     66  45  46 SW10      30.06F
LE MARS        SUNNY     68  48  49 S8G16     30.04F
ORANGE CITY    SUNNY     70  45  40 S9        30.04F
SHELDON        SUNNY     66  48  52 S10       30.04F
SIOUX CITY     SUNNY     70  48  45 VRB5      30.04F
SPENCER        SUNNY     67  45  45 S10       30.06F
STORM LAKE     SUNNY     66  54  63 VRB7      30.07S
$$

ABBREVIATIONS USED IN REMARKS
   TC - TEMPERATURE IN CELSIUS
  WCI - WIND CHILL INDEX
   HX - HEAT INDEX
  VSB - VISIBILITY




USA.gov is the U.S. government's official web portal to all federal, state and local government web resources and services.